Rogers, AR

6:10 PM CST on February 27, 2017 (GMT -0600)
Rogers Municipal-Carter

Weather History for KROG - March, 2014

Change the Weather History Date:

Saturday, March 15, 2014

  Actual Average Record
Temperature  
Mean Temperature 54 °F -  
Max Temperature 68 °F 53 °F 79 °F (2013)
Min Temperature 43 °F 35 °F 23 °F (1997)
Degree Days  
Heating Degree Days 10    
Growing Degree Days 4 (Base 50)    
Moisture  
Dew Point 46 °F    
Average Humidity 71    
Maximum Humidity 94    
Minimum Humidity 47    
Precipitation  
Precipitation 0.46 in - - ()
Sea Level Pressure  
Sea Level Pressure 29.90 in    
Wind  
Wind Speed 7 mph (ESE)    
Max Wind Speed 15 mph    
Max Gust Speed -    
Visibility 8 miles    
Events Rain    
Averages and records for this station are not official NWS values.
T = Trace of Precipitation, MM = Missing Value Source: NWS Daily Summary

Daily Weather History Graph

Daily Weather History Graph

Search for Another Location

Airport or City:

Trip Planner

Search our weather history database for the weather conditions in past years. The results will help you decide how hot, cold, wet, or windy it might be!

Date:

Astronomy

Mar. 15, 2014 Rise Set
Actual Time 7:27 AM CDT 7:23 PM CDT
Civil Twilight 7:01 AM CDT 7:49 PM CDT
Nautical Twilight 6:31 AM CDT 8:19 PM CDT
Astronomical Twilight 6:01 AM CDT 8:49 PM CDT
Moon 6:44 PM CDT (3/15) 6:38 AM CDT (3/15)
Length of Visible Light 12h 47m
Length of Day
11h 56m
Waxing Gibbous, 99% of the Moon is Illuminated
Mar 15
Waxing Gibbous
Mar 16
Full
Mar 23
Last Quarter
Mar 30
New
Apr 7
First Quarter

Hourly Weather History & Observations

Time (CDT) Temp. Windchill Dew Point Humidity Pressure Visibility Wind Dir Wind Speed Gust Speed Precip Events Conditions
12:57 AM 46.9 °F - 34.0 °F 61% 30.02 in 10.0 mi NE 3.5 mph - N/A   Clear
1:57 AM 46.9 °F - 35.1 °F 63% 30.02 in 10.0 mi ESE 3.5 mph - N/A   Clear
2:57 AM 44.1 °F 41.5 °F 35.1 °F 71% 30.01 in 10.0 mi East 4.6 mph - N/A   Clear
3:57 AM 43.0 °F 40.3 °F 36.0 °F 76% 30.00 in 7.0 mi East 4.6 mph - N/A   Clear
4:57 AM 44.1 °F 40.8 °F 37.0 °F 76% 30.00 in 10.0 mi East 5.8 mph - N/A   Clear
5:57 AM 44.1 °F 39.5 °F 37.9 °F 79% 29.99 in 10.0 mi ESE 8.1 mph - N/A   Clear
6:57 AM 44.1 °F 39.0 °F 39.0 °F 82% 29.99 in 10.0 mi ESE 9.2 mph - N/A   Clear
7:57 AM 44.1 °F 39.0 °F 39.9 °F 85% 29.99 in 8.0 mi ESE 9.2 mph - N/A   Clear
8:57 AM 46.9 °F - 42.1 °F 83% 29.99 in 7.0 mi ESE 8.1 mph - N/A   Scattered Clouds
9:57 AM 54.0 °F - 45.0 °F 72% 29.99 in 8.0 mi SE 10.4 mph - N/A   Clear
10:57 AM 60.1 °F - 48.0 °F 64% 29.98 in 9.0 mi SSE 8.1 mph - N/A   Overcast
11:57 AM 64.0 °F - 48.0 °F 56% 29.95 in 10.0 mi SSE 12.7 mph - N/A   Overcast
12:57 PM 66.0 °F - 46.9 °F 50% 29.93 in 10.0 mi South 15.0 mph - N/A   Overcast
1:57 PM 66.9 °F - 46.0 °F 47% 29.90 in 10.0 mi South 15.0 mph - N/A   Overcast
2:57 PM 66.9 °F - 48.0 °F 51% 29.87 in 10.0 mi South 13.8 mph - N/A   Scattered Clouds
3:57 PM 66.9 °F - 48.0 °F 51% 29.85 in 10.0 mi South 11.5 mph - N/A   Mostly Cloudy
4:57 PM 66.0 °F - 46.9 °F 50% 29.83 in 10.0 mi SSE 13.8 mph - N/A   Mostly Cloudy
5:57 PM 64.9 °F - 48.0 °F 54% 29.81 in 10.0 mi SE 10.4 mph - N/A   Overcast
6:57 PM 63.0 °F - 48.9 °F 60% 29.81 in 10.0 mi ESE 10.4 mph - N/A   Overcast
7:57 PM 61.0 °F - 50.0 °F 67% 29.81 in 10.0 mi ESE 10.4 mph - N/A   Overcast
8:57 PM 59.0 °F - 51.1 °F 75% 29.80 in 10.0 mi ESE 6.9 mph - 0.00 in Rain Light Rain
9:57 PM 55.9 °F - 52.0 °F 87% 29.80 in 7.0 mi East 5.8 mph - 0.05 in Rain Rain
10:57 PM 55.0 °F - 53.1 °F 93% 29.81 in 4.0 mi East 4.6 mph - 0.17 in Rain Rain
11:50 PM 55.4 °F - 53.6 °F 94% 29.82 in 3.0 mi ENE 4.6 mph - 0.16 in Rain Rain
11:54 PM 55.4 °F - 53.6 °F 94% 29.82 in 2.5 mi East 6.9 mph - 0.21 in Rain Heavy Rain
11:57 PM 55.4 °F - 53.6 °F 94% 29.82 in 2.5 mi East 5.8 mph - 0.23 in Rain Heavy Rain
11:59 PM 55.0 °F - 53.1 °F 93% 29.80 in 2.5 mi ENE 5.8 mph - 0.24 in Rain Rain